Airfield :
LOGIN :

Register | Disclaimer

   EN    FR    IT 

 










Legend :    VFR   Marginal VFR   IFR   Intensive IFR   Very Intensive IFR
Visi :
Ceiling :
>= 8 km
>= 3000ft
5 to 8 km
1000 to 3000 ft
1500m to 5 km
500 to 1000 ft
800 to 1500m
200 to 500 ft
< 800m
< 200 ft
Symbols :   Thunderstorms  Fog  Heavy snow  Heavy precipitations  Wind > 20 kt
SIGMETs :     Misc.  Thunderstorms  Icing  Turbulence  Mountain Waves  Volcanic Ashes







- Airport Elevation : 55 ft
- IATA code : DSA
- Download approach charts


EGCN - Robin Hood Doncaster Sheffield

CURRENT METAR :
  • 180650Z 29004KT CAVOK 01/00 Q1027

EXPIRED METARs :
  • 180620Z 29004KT CAVOK 01/00 Q1027
  • 180550Z 29005KT CAVOK 01/00 Q1026
  • 180520Z 31003KT CAVOK 01/00 Q1026
  • 180450Z 31005KT CAVOK 01/M00 Q1026
  • 180420Z 31007KT CAVOK 02/01 Q1025

TAF TAF EGCN
Valid from the 18 at 06:00 until the 19 at 06:00 UTC


180501Z 1806/1906 29008KT CAVOK
PROB30
TEMPO 1818/1906 4000 BR
No reported NOTAMs for that airfield.



MET'MAP, your aeronautical weather chart ! - Copyright ORBIFLY December 2007 - Disclaimer

ORBIFLY MET'MAP TEAM :

Programming & Development : Alexandra Zaïnal
Concept & Development : Baudouin d'Aumeries
Co-Development & Prog : Marc-Olivier Méhu
Technical & hardware support : Manuel Goepfert

Contact : metmap@orbifly.com




SOURCES & CREDITS :

   NOAA